TimeEET,TemperatureF,Dew PointF,Humidity,Sea Level PressureIn,VisibilityMPH,Wind Direction,Wind SpeedMPH,Gust SpeedMPH,PrecipitationIn,Events,Conditions,WindDirDegrees,DateUTC
12:00 AM,57.2,46.4,67,30.01,-9999.0,WNW,8.1,-,N/A,,Clear,300,2012-12-28 22:00:00
1:00 AM,57.2,48.2,72,30.01,-9999.0,WNW,9.2,-,N/A,,Clear,300,2012-12-28 23:00:00
2:00 AM,57,47,59,30.01,6,WNW,9.2,,,,,300,2012-12-29 00:00:00
2:00 AM,57.2,46.4,67,30.01,-9999.0,WNW,9.2,-,N/A,,Clear,300,2012-12-29 00:00:00
3:00 AM,57.2,50.0,77,29.98,-9999.0,WNW,9.2,-,N/A,,Clear,300,2012-12-29 01:00:00
4:00 AM,57.2,50.0,77,29.98,-9999.0,WNW,15.0,-,N/A,,Clear,300,2012-12-29 02:00:00
5:00 AM,57.2,50.0,77,29.98,-9999.0,WNW,13.8,-,N/A,,Clear,290,2012-12-29 03:00:00
6:00 AM,55.4,48.2,77,29.98,-9999.0,WNW,12.7,-,N/A,,Clear,300,2012-12-29 04:00:00
7:00 AM,55.4,48.2,77,29.98,-9999.0,WNW,10.4,-,N/A,,Clear,290,2012-12-29 05:00:00
8:00 AM,59,48,59,30.01,6,WNW,9.2,,,,Clear,300,2012-12-29 06:00:00
8:00 AM,59.0,48.2,67,30.01,-9999.0,WNW,9.2,-,N/A,,Clear,300,2012-12-29 06:00:00
9:00 AM,66.2,51.8,60,30.01,-9999.0,NW,17.3,-,N/A,,Clear,310,2012-12-29 07:00:00
10:00 AM,68.0,51.8,56,30.01,-9999.0,NNW,11.5,-,N/A,,Clear,340,2012-12-29 08:00:00
11:00 AM,69.8,53.6,56,30.01,-9999.0,North,13.8,-,N/A,,Clear,350,2012-12-29 09:00:00
12:00 PM,73.4,53.6,50,29.95,-9999.0,North,15.0,-,N/A,,Clear,360,2012-12-29 10:00:00
1:00 PM,73.4,53.6,50,29.92,-9999.0,North,16.1,-,N/A,,Clear,360,2012-12-29 11:00:00
2:00 PM,76,53,33,29.93,6,North,18.4,,,,,10,2012-12-29 12:00:00
2:00 PM,77.0,51.8,41,29.92,-9999.0,North,18.4,-,N/A,,Clear,10,2012-12-29 12:00:00
3:00 PM,75.2,55.4,50,29.92,-9999.0,North,15.0,-,N/A,,Clear,10,2012-12-29 13:00:00
4:00 PM,73.4,55.4,53,29.92,-9999.0,North,16.1,-,N/A,,Clear,360,2012-12-29 14:00:00
5:00 PM,69.8,57.2,64,29.95,-9999.0,North,16.1,-,N/A,,Clear,360,2012-12-29 15:00:00
6:00 PM,66.2,48.2,52,29.98,-9999.0,NNW,11.5,-,N/A,,Clear,330,2012-12-29 16:00:00
7:00 PM,64.4,50.0,59,29.98,-9999.0,NNW,13.8,-,N/A,,Clear,330,2012-12-29 17:00:00
8:00 PM,63,47,45,30.01,6,NNW,8.1,,,,,330,2012-12-29 18:00:00
8:00 PM,62.6,46.4,55,30.01,-9999.0,NNW,8.1,-,N/A,,Clear,330,2012-12-29 18:00:00
9:00 PM,60.8,46.4,59,30.01,-9999.0,WNW,10.4,-,N/A,,Clear,300,2012-12-29 19:00:00
10:00 PM,60.8,48.2,63,30.01,-9999.0,West,13.8,-,N/A,,Clear,280,2012-12-29 20:00:00
11:00 PM,59.0,48.2,67,30.01,-9999.0,West,13.8,-,N/A,,Clear,280,2012-12-29 21:00:00